[[[{"header":{"parameterUnit":"kt","parameterCategory":2,"dx":1,"dy":1,"la1":30.253999710083008,"la2":30.299108505249023,"lo1":-89.0895004272461,"lo2":-89.04439544677734,"nx":28,"ny":28,"refTime":"2022-10-23T21:00:00:Z","depth":0,"parameterNumber":1,"parameterNumberName":"U-component_of_WINDS"},"data":[2.4314,2.4476,2.4484,2.4675,2.4714,2.4847,2.4897,2.4964,2.5018,2.518,2.5275,2.53,2.5359,2.5477,2.5582,2.5591,2.5637,2.5692,2.5694,2.5439,2.5404,2.5371,2.5333,2.5701,2.5701,2.5959,2.5961,2.5963,2.4137,2.4177,2.4278,2.4381,2.4469,2.4422,2.4501,2.4579,2.4699,2.4766,2.4858,2.5001,2.5116,2.5156,2.5268,2.5349,2.5334,2.5379,2.5375,2.5386,2.5113,2.5072,2.539,2.539,2.539,2.539,2.539,2.539,2.3818,2.3914,2.3978,2.4088,2.4141,2.4211,2.4305,2.433,2.443,2.4544,2.4531,2.4668,2.4737,2.4873,2.492,2.503,2.4981,2.5033,2.5047,2.5061,2.5078,2.4715,2.5048,2.5047,2.5046,2.5046,2.5045,0,2.3586,2.3585,2.3679,2.3778,2.3857,2.3934,2.4005,2.4063,2.406,2.4143,2.4264,2.4335,2.4476,2.4592,2.4696,2.4734,2.4695,2.4689,2.4726,2.4737,2.4735,2.4743,2.4302,2.4679,2.4676,2.4674,2.4672,2.4671,2.3268,2.3376,2.3444,2.351,2.3549,2.3656,2.3721,2.3709,2.3779,2.3866,2.3952,2.4066,2.4157,2.435,2.4379,2.4485,2.4467,2.4612,2.4483,2.449,2.4476,2.4471,2.4485,2.4638,2.4642,2.4645,2.4648,0,2.309,2.3094,2.3264,2.3318,2.3335,2.3451,2.3499,2.3594,2.3606,2.374,2.377,2.3791,2.3909,2.3914,2.4049,2.4049,2.4251,2.4227,2.4229,2.4226,2.436,2.4349,2.4782,2.484,2.4453,2.4457,2.446,0,2.2822,2.2963,2.2963,2.306,2.322,2.3201,2.336,2.3385,2.3439,2.3544,2.3495,2.3596,2.3584,2.3686,2.3685,2.3849,2.3872,2.3883,2.3882,2.389,2.3889,2.393,2.3914,2.3867,2.3865,2.3863,2.3861,0,2.2544,2.2706,2.2864,2.2902,2.2971,2.3047,2.308,2.3138,2.3201,2.3283,2.3325,2.3422,2.3477,2.3556,2.3553,2.3466,2.3751,2.363,2.3763,2.3764,2.3827,2.3824,2.4204,2.3859,2.3858,2.3857,2.3856,0,2.2327,2.2406,2.2632,2.2689,2.2732,2.2836,2.2929,2.3017,2.3082,2.3087,2.3151,2.3118,2.3256,2.3138,2.3331,2.3219,2.3277,2.3298,2.3308,2.3323,2.3191,2.341,2.3767,2.3808,2.3336,2.3332,2.3328,0,2.2011,2.2237,2.2219,2.2434,2.2539,2.2476,2.2591,2.2648,2.2662,2.2756,2.2772,2.2879,2.279,2.2824,2.2918,2.2941,2.3086,2.292,2.3065,2.307,2.3053,2.3381,2.3435,2.3688,2.3272,2.3278,2.3282,0,2.1765,2.1842,2.1881,2.1924,2.199,2.2076,2.2207,2.2306,2.2369,2.2435,2.2548,2.2694,2.2636,2.269,2.2672,2.2771,2.2987,2.2694,2.2695,2.2751,2.3241,2.3293,2.3336,2.2955,2.2961,2.2967,2.3238,0,2.1446,2.1555,2.1659,2.1748,2.1813,2.1944,2.1941,2.2011,2.1987,2.1997,2.216,2.2203,2.2305,2.235,2.2326,2.2548,2.2512,2.2446,2.2332,2.2545,2.2635,2.2671,2.2199,2.2196,2.2193,2.2191,0,0,2.1145,2.13,2.1273,2.1395,2.1449,2.1378,2.1519,2.1563,2.1653,2.1694,2.1629,2.1842,2.188,2.2078,2.2144,2.2183,2.2225,2.2148,2.2443,2.2471,2.2497,2.2593,2.263,2.2186,2.2184,2.2183,2.2183,0,2.1026,2.106,2.1196,2.124,2.1303,2.1304,2.1338,2.1387,2.14,2.1554,2.1495,2.1592,2.1759,2.1809,2.1857,2.2124,2.2075,2.2154,2.2301,2.2414,2.2446,2.2474,2.2575,2.261,2.2176,2.2176,2.2176,0,2.0787,2.0821,2.0884,2.0996,2.1036,2.1143,2.1022,2.1138,2.1218,2.1134,2.1288,2.1312,2.1377,2.1561,2.1643,2.1588,2.1941,2.1825,2.1843,2.1853,2.1963,2.2001,2.2035,2.1587,2.1585,2.1583,0,0,2.0685,2.0783,2.0814,2.097,2.0999,2.1002,2.1057,2.1036,2.1093,2.1116,2.1144,2.1204,2.1301,2.1366,2.1457,2.1658,2.1673,2.1753,2.1781,2.1803,2.1826,2.1941,2.1979,2.1575,2.1575,2.1575,0,0,2.0637,2.0677,2.0639,2.0819,2.0874,2.0915,2.1013,2.0969,2.1049,2.1033,2.1005,2.102,2.1191,2.1216,2.1113,2.1417,2.1304,2.1328,2.1394,2.1429,2.1456,2.1448,2.0996,0,0,0,0,0,2.0511,2.0671,2.0637,2.0666,2.0806,2.0934,2.0952,2.0931,2.0852,2.0931,2.0948,2.0889,2.1156,2.1065,2.1095,2.121,2.1476,2.1493,2.151,2.1643,2.1679,2.171,0,0,0,0,0,0,2.0522,2.0558,2.0633,2.0681,2.0712,2.0928,2.0791,2.0789,2.0843,2.083,2.0888,2.0891,2.0877,2.1047,2.1075,2.1185,2.0987,2.1483,2.1498,2.1511,2.1655,2.1685,2.1711,0,0,0,0,0,2.0531,2.0559,2.0788,2.0678,2.0705,2.0716,2.0784,2.0782,2.0824,2.0849,2.085,2.0803,2.0881,2.0903,2.1064,2.1173,2.0967,2.0978,2.1492,2.1504,2.1515,2.167,0,0,0,0,0,0,2.0538,2.056,2.0793,2.0801,2.0614,2.0703,2.0716,2.0776,2.0838,2.0841,2.0761,2.075,2.0885,2.0902,2.0919,2.117,2.0951,2.0962,2.0969,2.1501,2.1511,2.1519,0,0,0,0,0,0,2.0544,2.0567,2.0797,2.0717,2.0715,2.0692,2.0703,2.0836,2.084,2.0747,2.0739,2.0755,2.086,2.0902,2.0915,2.1123,2.0939,2.0949,2.0956,2.0961,2.1509,2.1516,0,0,0,0,0,0,2.0553,2.0573,2.0715,2.0714,2.0712,2.0796,2.0809,2.0954,2.0769,2.0746,2.0752,2.0745,2.0862,2.0874,2.0913,2.1115,2.1121,2.0939,2.0946,2.0951,2.0954,0,0,0,0,0,0,0,2.0561,2.0436,2.0747,2.0711,2.0709,2.0871,2.0873,2.0875,2.0768,2.0761,2.0754,2.0748,2.088,2.0891,2.0903,2.1109,0,0,2.0938,2.0943,0,0,0,0,0,0,0,0,2.0427,2.0434,2.0748,2.0749,2.0751,2.0871,2.0873,2.0875,2.0766,2.0761,2.0756,2.075,2.0883,2.0892,2.0901,0,0,0,0,0,0,0,0,0,0,0,0,0,0,0,2.0748,2.0749,0,2.0872,2.0873,2.0874,2.0766,2.0761,2.0757,2.0752,2.0886,2.0893,2.0901,0,0,0,0,0,0,0,0,0,0,0,0,0,0,0,0,0,0,0,0,0,0,0,0,0,0,0,0,0,0,0,0,0,0,0,0,0,0,0,0,0,0,0,0,0,0,0,0,0,0,0,0,0,0,0,0,0,0,0,0,0,0,0,0,0,0,0,0,0]}],[{"header":{"parameterUnit":"kt","parameterCategory":2,"dx":1,"dy":1,"la1":30.253999710083008,"la2":30.299108505249023,"lo1":-89.0895004272461,"lo2":-89.04439544677734,"nx":28,"ny":28,"refTime":"2022-10-23T21:00:00:Z","depth":0,"parameterNumber":2,"parameterNumberName":"V-component_of_WINDS"},"data":[10.5249,10.5494,10.5591,10.5919,10.6063,10.6307,10.6427,10.6594,10.6752,10.7063,10.726,10.739,10.7594,10.7861,10.8086,10.8141,10.8232,10.8249,10.8312,10.8136,10.8119,10.8102,10.8048,10.8266,10.8266,10.8481,10.8483,10.8485,10.5121,10.5263,10.5462,10.5722,10.5897,10.5939,10.6153,10.6299,10.6518,10.6715,10.6913,10.7197,10.7437,10.764,10.789,10.8018,10.8056,10.8079,10.8074,10.8107,10.7922,10.7863,10.8044,10.8044,10.8044,10.8044,10.8044,10.8044,10.4916,10.5057,10.5269,10.5487,10.5645,10.582,10.5976,10.6127,10.6329,10.6592,10.6672,10.6926,10.7147,10.7498,10.7641,10.7849,10.7842,10.7901,10.7918,10.7931,10.7934,10.7621,10.7895,10.7895,10.7895,10.7895,10.7895,0,10.4796,10.4866,10.5061,10.5288,10.5453,10.5639,10.5827,10.5927,10.6115,10.6274,10.6516,10.6673,10.6986,10.723,10.7487,10.7626,10.7694,10.771,10.7753,10.7719,10.7658,10.77,10.7398,10.7702,10.7701,10.77,10.7699,10.7699,10.4601,10.4752,10.5018,10.5144,10.5268,10.547,10.5611,10.5763,10.5908,10.6167,10.629,10.6533,10.6735,10.7112,10.7295,10.7533,10.7569,10.7675,10.7605,10.7567,10.7579,10.757,10.7591,10.7686,10.7688,10.7689,10.769,0,10.4483,10.4636,10.4903,10.5152,10.522,10.5375,10.5593,10.5744,10.5874,10.6103,10.6165,10.6372,10.6609,10.6775,10.7081,10.7162,10.7438,10.7464,10.7364,10.738,10.7496,10.7485,10.7833,10.789,10.766,10.7661,10.7663,0,10.4379,10.4573,10.4792,10.4938,10.5162,10.5307,10.5527,10.5659,10.5845,10.6026,10.6123,10.6292,10.6476,10.6673,10.6792,10.7045,10.7101,10.7181,10.7211,10.7175,10.7165,10.726,10.7251,10.7265,10.7263,10.7261,10.7259,0,10.4182,10.4523,10.476,10.4864,10.5149,10.526,10.5385,10.5593,10.573,10.5936,10.6029,10.6259,10.6387,10.6569,10.6718,10.6665,10.703,10.6989,10.7112,10.7109,10.7186,10.718,10.7443,10.7257,10.7256,10.7256,10.7255,0,10.4122,10.4316,10.4635,10.4876,10.496,10.5117,10.535,10.5522,10.5735,10.5817,10.5981,10.6066,10.6294,10.6243,10.6564,10.6454,10.6577,10.6672,10.6684,10.6718,10.6657,10.6789,10.7017,10.7051,10.6747,10.6743,10.674,0,10.3859,10.4218,10.4342,10.4643,10.4832,10.4926,10.5105,10.5287,10.5411,10.5596,10.5736,10.5946,10.5942,10.6031,10.6168,10.6323,10.6467,10.6308,10.6589,10.6597,10.6532,10.6743,10.6737,10.6948,10.6687,10.6693,10.6697,0,10.3672,10.4007,10.4051,10.4177,10.4433,10.4592,10.4796,10.5032,10.5148,10.534,10.5521,10.5818,10.583,10.5974,10.6067,10.6201,10.6374,10.6195,10.6203,10.6227,10.6672,10.6667,10.6701,10.6409,10.6416,10.6421,10.6655,0,10.3558,10.3754,10.3877,10.4142,10.4288,10.4482,10.4646,10.478,10.4852,10.4976,10.5242,10.5435,10.5681,10.576,10.5832,10.6082,10.6067,10.6075,10.604,10.6174,10.6257,10.6289,10.5904,10.5904,10.5904,10.5904,0,0,10.3271,10.3553,10.3679,10.3876,10.4008,10.4099,10.4293,10.4433,10.4713,10.4806,10.4785,10.5231,10.5388,10.5695,10.5749,10.5847,10.591,10.5854,10.6107,10.6129,10.615,10.6235,10.6266,10.5904,10.5904,10.5904,10.5904,0,10.3262,10.3404,10.3589,10.3738,10.3961,10.408,10.4125,10.4364,10.4453,10.4708,10.4786,10.4965,10.5313,10.5473,10.56,10.5821,10.5873,10.5882,10.5947,10.6101,10.6122,10.6142,10.6229,10.6257,10.5904,10.5904,10.5904,0,10.3111,10.3282,10.3386,10.368,10.3827,10.4018,10.4018,10.4217,10.4363,10.4457,10.471,10.484,10.5065,10.5329,10.5453,10.544,10.5829,10.5733,10.5738,10.5757,10.5915,10.5941,10.5964,10.5659,10.5657,10.5656,0,0,10.3082,10.3261,10.3491,10.3689,10.3777,10.3956,10.4072,10.4154,10.4348,10.4425,10.4591,10.4783,10.4989,10.5121,10.5322,10.5586,10.565,10.5696,10.5707,10.5716,10.5739,10.5899,10.5925,10.565,10.565,10.565,0,0,10.307,10.3341,10.3376,10.3624,10.3803,10.4047,10.4166,10.4217,10.4411,10.4408,10.4562,10.4619,10.4869,10.4993,10.4894,10.5314,10.5274,10.5301,10.5223,10.524,10.5251,10.5218,10.4926,0,0,0,0,0,10.3141,10.3307,10.3336,10.3401,10.3773,10.403,10.4079,10.4205,10.4175,10.4268,10.4416,10.446,10.4973,10.4889,10.4956,10.5065,10.5574,10.5588,10.56,10.5562,10.5578,10.5591,0,0,0,0,0,0,10.3168,10.3247,10.3332,10.3579,10.3664,10.4025,10.4003,10.4042,10.4169,10.4173,10.4429,10.4468,10.4585,10.4864,10.4922,10.5023,10.4907,10.5579,10.5591,10.5601,10.5568,10.5581,10.5592,0,0,0,0,0,10.319,10.3254,10.3816,10.3578,10.3652,10.3859,10.3997,10.403,10.4131,10.4359,10.4398,10.4214,10.4584,10.4642,10.4899,10.4994,10.4868,10.4889,10.5587,10.5596,10.5604,10.5574,0,0,0,0,0,0,10.3206,10.3289,10.3834,10.3861,10.3522,10.3842,10.3896,10.4019,10.4311,10.4351,10.415,10.415,10.4586,10.4631,10.4675,10.4976,10.4836,10.4857,10.4871,10.5594,10.5601,10.5607,0,0,0,0,0,0,10.3256,10.3311,10.3848,10.377,10.379,10.3825,10.3873,10.411,10.4314,10.4087,10.4096,10.4147,10.4522,10.4623,10.4658,10.5022,10.4811,10.4832,10.4846,10.4855,10.56,10.5605,0,0,0,0,0,0,10.3281,10.333,10.3764,10.3779,10.3797,10.4116,10.4038,10.4414,10.4239,10.4073,10.4228,10.4222,10.4514,10.4551,10.4646,10.4995,10.5015,10.4812,10.4826,10.4836,10.4842,0,0,0,0,0,0,0,10.3303,10.2948,10.3669,10.3787,10.3802,10.4116,10.4124,10.4131,10.4238,10.4233,10.4229,10.4225,10.4693,10.4716,10.4739,10.4973,0,0,10.481,10.482,0,0,0,0,0,0,0,0,10.2931,10.2943,10.367,10.3675,10.3681,10.4117,10.4124,10.413,10.4237,10.4234,10.423,10.4226,10.4699,10.4717,10.4736,0,0,0,0,0,0,0,0,0,0,0,0,0,0,0,10.367,10.3675,0,10.4118,10.4123,10.4128,10.4237,10.4234,10.4231,10.4228,10.4704,10.4719,10.4735,0,0,0,0,0,0,0,0,0,0,0,0,0,0,0,0,0,0,0,0,0,0,0,0,0,0,0,0,0,0,0,0,0,0,0,0,0,0,0,0,0,0,0,0,0,0,0,0,0,0,0,0,0,0,0,0,0,0,0,0,0,0,0,0,0,0,0,0,0]}]]]